Flag for Puerto Rico

Past Weather in 18°22'41"N, 66°02'36"W, Puerto Rico — Yesterday and Last 2 Weeks

Now
76 °F

Passing clouds.


Feels Like: 75 °F
Forecast: 86 / 76 °F
Wind: 6 mph from East

Location: Luis Munoz Marin

Current Time: Apr 8, 2020 at 8:30:04 pm

Latest Report: Apr 8, 2020 at 7:56 pm


Visibility: 10 mi

Pressure: 29.95 "Hg

Humidity: 97%

Dew Point: 75 °F

Location of 18°22'41"N, 66°02'36"WLocation

Past Weather in 18°22'41"N, 66°02'36"W — Graph

°F

18°22'41"N, 66°02'36"W Temperature Yesterday

Maximum temperature yesterday: 82 °F (at 11:56 am)
Minimum temperature yesterday: 76 °F (at 6:56 am)
Average temperature yesterday: 79 °F

High & Low Weather Summary for the Past Weeks

 TemperatureHumidityPressure
High91 °F (Apr 1, 2:56 pm)100% (Apr 8, 5:56 am)30.12 "Hg (Apr 8, 5:56 am)
Low71 °F (Mar 26, 5:56 am)39% (Apr 2, 1:56 pm)29.85 "Hg (Apr 1, 3:56 pm)
Average79 °F74%29.97 "Hg
* Reported Mar 24 6:56 pm — Apr 8 6:56 pm, 18°22'41"N, 66°02'36"W. Weather by CustomWeather, © 2020

Note: Actual official high and low records may vary slightly from our data, if they occured in-between our weather recording intervals... More about our weather records

18°22'41"N, 66°02'36"W Weather History for the Previous 24 Hours

Scroll right to see more
 ConditionsComfort  
Time TempWeatherWind HumidityBarometerVisibility
6:56 pm
Wed, Apr 8
77 °FBroken clouds.7 mph90%29.93 "Hg10 mi
5:56 pm78 °FLight rain. Broken clouds.9 mph87%29.93 "Hg8 mi
4:56 pm77 °FMore clouds than sun.12 mph90%29.92 "Hg10 mi
3:56 pm78 °FLight rain. Broken clouds.14 mph87%29.93 "Hg8 mi
2:56 pm78 °FBroken clouds.16 mph84%29.93 "Hg10 mi
1:56 pm78 °FBroken clouds.17 mph87%29.96 "Hg10 mi
12:56 pm77 °FBroken clouds.12 mph90%29.98 "Hg10 mi
12:16 pm75 °FLight rain. Fog.10 mph100%30.00 "Hg6 mi
11:56 am77 °FLight rain. Mostly cloudy.12 mph88%30.00 "Hg9 mi
10:56 am78 °FBroken clouds.14 mph87%30.01 "Hg10 mi
9:56 am76 °FLight rain. Broken clouds.12 mph94%30.01 "Hg9 mi
8:56 am77 °FBroken clouds.10 mph94%30.00 "Hg10 mi
7:56 am75 °FLight rain. Broken clouds.9 mph96%29.98 "Hg9 mi
6:56 am75 °FLight rain. Overcast.9 mph96%29.97 "Hg8 mi
5:56 am75 °FLight rain. Mostly cloudy.9 mph100%29.95 "Hg9 mi
4:56 am76 °FRain. Mostly cloudy.12 mph94%29.93 "Hg9 mi
4:37 am76 °FRain. Partly cloudy.3 mph97%29.93 "Hg9 mi
3:56 am76 °FLight rain. Partly cloudy.7 mph94%29.93 "Hg9 mi
2:56 am76 °FPartly cloudy.3 mph97%29.94 "Hg10 mi
1:56 am77 °FPassing clouds.6 mph90%29.96 "Hg10 mi
12:56 am78 °FPassing clouds.14 mph84%29.98 "Hg10 mi
11:56 pm
Tue, Apr 7
78 °FPartly cloudy.15 mph84%30.00 "Hg10 mi
10:56 pm78 °FOvercast.13 mph87%30.02 "Hg10 mi
9:56 pm78 °FLight rain. Overcast.6 mph87%30.03 "Hg9 mi
8:56 pm79 °FMostly cloudy.9 mph82%30.03 "Hg10 mi
Weather by CustomWeather, © 2020

See weather overview

Advertising